TimeEST,TemperatureF,Dew PointF,Humidity,Sea Level PressureIn,VisibilityMPH,Wind Direction,Wind SpeedMPH,Gust SpeedMPH,PrecipitationIn,Events,Conditions,WindDirDegrees,DateUTC
12:00 AM,51.8,44.6,76,30.24,10.0,NNE,5.8,-,N/A,,Scattered Clouds,20,2012-11-17 05:00:00
12:53 AM,51.1,45.0,80,30.27,10.0,NE,6.9,-,N/A,,Overcast,40,2012-11-17 05:53:00
1:49 AM,50.0,44.6,82,30.25,10.0,NE,4.6,-,N/A,,Mostly Cloudy,40,2012-11-17 06:49:00
1:53 AM,50.0,45.0,83,30.27,10.0,NE,4.6,-,N/A,,Mostly Cloudy,40,2012-11-17 06:53:00
2:53 AM,51.1,45.0,80,30.27,10.0,NNE,5.8,-,N/A,,Overcast,30,2012-11-17 07:53:00
3:53 AM,52.0,44.1,74,30.26,10.0,NE,8.1,-,N/A,,Overcast,40,2012-11-17 08:53:00
4:53 AM,52.0,44.1,74,30.27,10.0,NE,8.1,-,N/A,,Overcast,40,2012-11-17 09:53:00
5:53 AM,52.0,44.1,74,30.28,10.0,NNE,6.9,-,N/A,,Overcast,30,2012-11-17 10:53:00
6:10 AM,51.8,42.8,71,30.26,10.0,NE,9.2,-,N/A,,Overcast,40,2012-11-17 11:10:00
6:53 AM,52.0,43.0,71,30.29,10.0,NNE,9.2,-,N/A,,Overcast,30,2012-11-17 11:53:00
7:53 AM,51.1,42.1,71,30.30,10.0,NNE,8.1,-,N/A,,Scattered Clouds,30,2012-11-17 12:53:00
8:53 AM,54.0,42.1,64,30.32,10.0,NNE,13.8,18.4,N/A,,Overcast,30,2012-11-17 13:53:00
9:53 AM,57.9,42.1,56,30.32,10.0,NE,12.7,-,N/A,,Partly Cloudy,40,2012-11-17 14:53:00
10:53 AM,61.0,42.1,50,30.32,10.0,NNE,9.2,-,N/A,,Scattered Clouds,30,2012-11-17 15:53:00
11:53 AM,61.0,43.0,52,30.30,10.0,NE,10.4,-,N/A,,Scattered Clouds,40,2012-11-17 16:53:00
12:53 PM,63.0,43.0,48,30.28,10.0,NNE,11.5,-,N/A,,Mostly Cloudy,20,2012-11-17 17:53:00
1:53 PM,64.9,44.1,47,30.27,10.0,NNE,11.5,-,N/A,,Mostly Cloudy,20,2012-11-17 18:53:00
2:53 PM,63.0,44.1,50,30.25,10.0,NNE,10.4,-,N/A,,Mostly Cloudy,30,2012-11-17 19:53:00
3:53 PM,62.1,43.0,50,30.27,10.0,NNE,12.7,-,N/A,,Overcast,20,2012-11-17 20:53:00
4:53 PM,61.0,43.0,52,30.27,10.0,NNE,9.2,-,0.00,,Overcast,20,2012-11-17 21:53:00
5:53 PM,61.0,42.1,50,30.28,10.0,NNE,8.1,-,N/A,,Overcast,20,2012-11-17 22:53:00
6:53 PM,61.0,42.1,50,30.30,10.0,North,9.2,-,N/A,,Overcast,10,2012-11-17 23:53:00
7:53 PM,60.1,43.0,53,30.31,10.0,NNE,9.2,-,N/A,,Overcast,20,2012-11-18 00:53:00
8:53 PM,59.0,42.1,53,30.32,10.0,NNE,10.4,-,N/A,,Overcast,30,2012-11-18 01:53:00
9:53 PM,57.0,41.0,55,30.33,10.0,NE,10.4,-,N/A,,Overcast,50,2012-11-18 02:53:00
10:53 PM,55.0,37.9,53,30.33,10.0,NNE,9.2,-,N/A,,Overcast,30,2012-11-18 03:53:00
11:53 PM,53.1,37.9,57,30.31,10.0,NNE,6.9,-,N/A,,Overcast,20,2012-11-18 04:53:00